Regional Weather Roundup
Issued by NWS

Home | Current Version | Previous Version | Graphics & Text | Print | Product List | Glossary On
Versions: 1 2 3 4 5 6 7 8 9 10 11 12 13 14 15 16 17 18 19 20 21 22 23 24 25 26 27
000
ASUS43 KDMX 241207
RWRIA

WEATHER ROUNDUP FOR IOWA
NATIONAL WEATHER SERVICE DES MOINES IA
700 AM CDT FRI OCT 24 2014

NOTE: "FAIR" INDICATES FEW OR NO CLOUDS BELOW 12,000 FEET WITH NO
SIGNIFICANT WEATHER AND/OR OBSTRUCTIONS TO VISIBILITY.

* - THESE STATIONS ARE NOT NWS STATIONS...THUS NOT UNDER NWS
QUALITY CONTROL.  THEY ALSO DO NOT REPORT WEATHER SUCH
AS PRECIPITATION OR FOG.

IAZ001>003-012>014-020>022-031>034-043>046-241300-
   NORTHWEST IOWA

CITY           SKY/WX    TMP DP  RH WIND       PRES   REMARKS
CARROLL *      CLOUDY    57  57 100 SW10G17   29.92F FOG
CHEROKEE *     PTCLDY    55  55  99 S6        29.87F
DENISON *      CLEAR     57  57 100 S10G17    29.90F FOG
LE MARS *      CLEAR     54  52  94 S8        29.87S
ORANGE CITY *  CLEAR     54  50  87 S6        29.87S FOG
SHELDON *      CLEAR     54  52  94 S8        29.85S
SIOUX CITY     PTCLDY    55  53  93 S7        29.88S
6HR MIN TEMP:  50; 6HR MAX TEMP:  56;

SPENCER        PTCLDY    52  49  89 S5        29.87S
6HR MIN TEMP:  46; 6HR MAX TEMP:  53;

STORM LAKE *   CLEAR     57  55  94 S12G18    29.89F
$$

IAZ055>058-069>071-079>083-090>094-241300-
   SOUTHWEST IOWA

CITY           SKY/WX    TMP DP  RH WIND       PRES   REMARKS
ATLANTIC *     CLOUDY    59  59 100 S13       29.96S FOG
AUDUBON *      CLOUDY    57  54  88 S8        29.96F FOG
CLARINDA *     FOG       59  59 100 S7        30.01S VSB 1/4
COUNCIL BLFS * CLEAR     59  59 100 S10       29.94F FOG
CRESTON *      FOG       57  57 100 SW13      30.00F VSB 1/4
HARLAN  *      FOG       57  57 100 S12       29.98F VSB 1/4
LAMONI         FOG       57  56  96 SW9       30.02F VSB 1/4
6HR MIN TEMP:  57; 6HR MAX TEMP:  58;

RED OAK *      CLOUDY    59  59 100 S10       29.98S FOG
SHENANDOAH *   CLOUDY    59  59 100 S7        30.00R FOG
$$

IAZ047>049-059>061-072>074-084-241300-
   CENTRAL IOWA

CITY           SKY/WX    TMP DP  RH WIND       PRES   REMARKS
AMES           FOG       52  51  97 SE6       29.98S VSB 1/4
6HR MIN TEMP:  46; 6HR MAX TEMP:  52;

ANKENY *       FOG       55  55 100 SE5       29.98S VSB 0
CHARITON *     FOG       57  57 100 S10       30.01S VSB 1/4
DES MOINES     FOG       59  57  93 S10       29.98F VSB 1/8
6HR MIN TEMP:  51; 6HR MAX TEMP:  59;

GRINNELL*      FOG       52  51  97 S5        30.02R VSB 1/4
KNOXVILLE *    FOG       57  57 100 S12       29.99S VSB 1/4
MARSHALLTOWN   FOG       48  48 100 S6        29.99R VSB 1/4
6HR MIN TEMP:  42; 6HR MAX TEMP:  48;

PELLA *        FOG       57  56  99 S6        30.02S VSB 1/2
PERRY *        FOG       57  57 100 S10       29.96S VSB 1
$$

IAZ004>006-015-016-023>025-035-036-241300-
   NORTH CENTRAL IOWA

CITY           SKY/WX    TMP DP  RH WIND       PRES   REMARKS
ALGONA *       CLEAR     54  50  87 S14       29.89F
CLARION *      CLEAR     52  52 100 S12       29.93F
ESTHERVILLE    PTCLDY    48  45  89 S10       29.86F
6HR MIN TEMP:  43; 6HR MAX TEMP:  48;

FORT DODGE *   PTCLDY    54  48  82 S6        29.93F
MASON CITY     PTCLDY    45  44  97 SE6       29.95  FOG
6HR MIN TEMP:  40; 6HR MAX TEMP:  45;

FOREST CITY *  CLEAR     48  48 100 SE7       29.92F
IOWA FALLS *   FOG       46  45  93 SE7       29.97F VSB 1
$$

IAZ007>011-017>019-026>030-037>042-050>054-066-241300-
   NORTHEAST IOWA

CITY           SKY/WX    TMP DP  RH WIND       PRES   REMARKS
CEDAR RAPIDS   FOG       45  45 100 S7        30.01F VSB 1/8
6HR MIN TEMP:  42; 6HR MAX TEMP:  45;

CHARLES CITY * FOG       46  46 100 SE7       29.98F VSB 0
CLINTON *      CLOUDY    46  45  93 E3        30.07F
DECORAH *      FOG       50  50 100 SE3       29.99F VSB 0
DUBUQUE        FOG       50  50 100 S5        30.03F VSB 1/4
6HR MIN TEMP:  50; 6HR MAX TEMP:  51;

MONTICELLO *   FOG       50  50 100 S5        30.03S VSB 0
OELWEIN *      FOG       46  46 100 SE7       30.01R VSB 0
WATERLOO       FOG       46  46 100 SE5       29.99S VSB 1/4
6HR MIN TEMP:  46; 6HR MAX TEMP:  48; 6HR PCP: TRACE;

$$

IAZ064-065-067-068-078-241300-
   EAST CENTRAL IOWA

CITY           SKY/WX    TMP DP  RH WIND       PRES   REMARKS
DAVENPORT      FOG       50  49  96 SE6       30.05F VSB 1/4
6HR MIN TEMP:  40; 6HR MAX TEMP:  50;

IOWA CITY      FOG       47  47 100 S7        30.05F VSB 1/4
6HR MIN TEMP:  45; 6HR MAX TEMP:  47;

MT. PLEASANT * DRZL/FOG  50  50 100 S5        30.06S VSB 1/4
MUSCATINE *    FOG       50  50 100 CALM      30.05F VSB 0
QUAD CITIES    FOG       50  49  96 E3        30.05F VSB 3/4
6HR MIN TEMP:  40; 6HR MAX TEMP:  50;

$$

IAZ062-063-075>077-085>089-095>099-241300-
   SOUTHEAST IOWA

CITY           SKY/WX    TMP DP  RH WIND       PRES   REMARKS
BURLINGTON     FOG       53  53 100 S3        30.06S VSB 1/4
6HR MIN TEMP:  52; 6HR MAX TEMP:  54;

FAIRFIELD *    CLOUDY    52  50  93 S5        30.04F
FORT MADISON * FOG       54  54 100 S5        30.07S VSB 0
KEOKUK *       FOG       54  54 100 SW7       30.06S VSB 0
OSKALOOSA *    LGT RAIN  53  53  99 S6        30.03S VSB 1/4
CENTERVILLE *  FOG       55  55 100 S7        30.05S VSB 1
OTTUMWA        FOG       54  53  97 S6        30.03F VSB 1/4
6HR MIN TEMP:  44; 6HR MAX TEMP:  54;

WASHINGTON *   FOG       50  50 100 SW7       30.05S VSB 0
$$

ABBREVIATIONS USED IN REMARKS
   TC - TEMPERATURES IN CELSIUS
  WCI - WIND CHILL INDEX
   HX - HEAT INDEX
  VSB - VISIBILITY
$$




USA.gov is the U.S. government's official web portal to all federal, state and local government web resources and services.